Hourly Data Report for October 26, 2015

All times are specified in Local Standard Time (LST). Add 1 hour to adjust for Daylight Saving Time where and when it is observed.

SAINT JOHN A
NEW BRUNSWICK

45°18'58.000" N
65°53'24.000" W
108.80 m
8104901
71609
YSJ

Download Data

Hourly Data (October 2015)
Hourly Data Report for October 26, 2015
Temp Definition
°C
Dew Point Temp Definition
°C
Rel Hum Definition
%
Wind Dir Definition
10's deg

Wind Spd Definition
km/h
Visibility Definition
km
Stn Press Definition
kPa
Hmdx Definition


Wind Chill Definition


Weather Definition


TIME
00:00 Legend Double Dagger 6.8 4.5 85 35 30 24.1 100.36     LegendNANA
01:00 Legend Double Dagger 4.7 1.9 82 34 26 24.1 100.48     LegendNANA
02:00 Legend Double Dagger 3.7 1.3 84 34 22 24.1 100.51     Mainly Clear
03:00 Legend Double Dagger 3.1 0.5 83 33 26 24.1 100.56     LegendNANA
04:00 Legend Double Dagger 2.4 0.1 85 34 25 24.1 100.65     LegendNANA
05:00 Legend Double Dagger 1.8 -0.5 85 34 23 24.1 100.76     Mainly Clear
06:00 Legend Double Dagger 1.2 -1.0 85 33 18 24.1 100.87     LegendNANA
07:00 Legend Double Dagger 0.9 -1.5 84 33 23 24.1 100.94     LegendNANA
08:00 Legend Double Dagger 1.5 -1.4 81 33 23 24.1 101.03     Mainly Clear
09:00 Legend Double Dagger 2.7 -1.7 73 33 32 24.1 101.10     LegendNANA
10:00 Legend Double Dagger 3.8 -1.8 67 34 21 24.1 101.18     LegendNANA
11:00 Legend Double Dagger 4.4 -2.5 61 36 28 24.1 101.22     Mostly Cloudy
12:00 Legend Double Dagger 4.0 -2.2 64 35 28 24.1 101.19     LegendNANA
13:00 Legend Double Dagger 5.5 -2.3 57 34 24 24.1 101.21     LegendNANA
14:00 Legend Double Dagger 6.4 -3.3 50 33 21 24.1 101.24     Mainly Clear
15:00 Legend Double Dagger 5.9 -4.8 46 33 25 24.1 101.27     LegendNANA
16:00 Legend Double Dagger 5.1 -5.6 46 35 26 24.1 101.33     LegendNANA
17:00 Legend Double Dagger 3.5 -5.5 52 34 20 24.1 101.43     Mainly Clear
18:00 Legend Double Dagger 1.5 -5.9 58 32 13 24.1 101.49     LegendNANA
19:00 Legend Double Dagger 0.6 -6.5 59 33 17 24.1 101.59     LegendNANA
20:00 Legend Double Dagger -0.4 -6.8 62 33 13 24.1 101.65   -5 Clear
21:00 Legend Double Dagger -0.9 -6.7 65 32 9 24.1 101.71   -4 LegendNANA
22:00 Legend Double Dagger -2.0 -6.6 71 32 10 24.1 101.78   -6 LegendNANA
23:00 Legend Double Dagger -3.0 -6.1 79 30 6 24.1 101.84   -5 Clear

Notes on Data Quality.

Legend

  • E = Estimated
  • M = Missing
  • NA = Not Available
  • ‡ = Partner data that is not subject to review by the National Climate Archives
Date modified: